Regional Weather Roundup
Issued by NWS Albany, NY

Home | Current Version | Previous Version | Text Only | Print | Product List | Glossary On
Versions: 1 2 3 4 5 6 7 8 9 10 11 12 13 14 15 16 17 18 19 20 21 22 23 24 25 26 27
000
ASUS41 KALY 230610
RWRALY

NEW YORK STATE HOURLY WEATHER ROUNDUP
NATIONAL WEATHER SERVICE ALBANY NY
200 AM EDT MON OCT 23 2017

NOTE: "FAIR" INDICATES FEW OR NO CLOUDS BELOW 12,000 FEET WITH NO
SIGNIFICANT WEATHER AND/OR NO OBSTRUCTIONS TO VISIBILITY.

NYZ032-033-038>043-046>054-057>066-NYZ062>081-082-084-230700-
EAST


CITY           SKY/WX    TMP DP  RH WIND       PRES   REMARKS
ALBANY         PTCLDY    49  42  77 CALM      30.31F
GLENS FALLS    CLEAR     43  39  86 CALM      30.31F
POUGHKEEPSIE   CLEAR     46  42  86 CALM      30.34F
NEWBURGH       CLEAR     50  46  87 CALM      30.36F
MONTGOMERY     CLEAR     44  42  93 CALM      30.34F
WHITE PLAINS   FOG       52  51  97 CALM      30.35F VSB 1/4
ISLIP          CLEAR     54  54 100 CALM      30.36F
NEW YORK CITY  MOCLDY    62  59  90 CALM      30.35S
CENTRAL PARK   CLEAR     62  59  90 CALM      30.37F
$$

NYZ005>009-017-018-044>046-055-056-230700-
CENTRAL


CITY           SKY/WX    TMP DP  RH WIND       PRES   REMARKS
FULTON         CLEAR     61  45  55 VRB5      30.19F
SYRACUSE       PTCLDY    62  45  53 S10G23    30.20F
ROME           CLEAR     53  45  74 SE6       30.27F
ELMIRA         PTCLDY    49  45  86 CALM      30.23F
BINGHAMTON     CLEAR     55  43  63 S7        30.27F
MONTICELLO     CLEAR     45  43  93 E5        30.34F
$$

NYZ026>034-041>043-087-230700-
NORTH


CITY           SKY/WX    TMP DP  RH WIND       PRES   REMARKS
WATERTOWN      CLEAR     64  44  48 S7        30.17F
FORT DRUM      NOT AVBL
OGDENSBURG     FAIR      60  46  60 S6        30.17F
MASSENA        CLEAR     45  44  97 CALM      30.19F
SARANAC LAKE   CLEAR     36  35  96 CALM      30.24F
PLATTSBURGH    CLEAR     46  43  89 CALM      30.24S
$$

NYZ001>004-010>016-019>021-085-230700-
WEST


CITY           SKY/WX    TMP DP  RH WIND       PRES   REMARKS
NIAGARA FALLS  MOCLDY    65  52  62 S7        30.10S
BUFFALO        CLOUDY    65  52  62 S8        30.10F
DUNKIRK        CLOUDY    67  53  61 S20G29    30.09F
JAMESTOWN      CLOUDY    60  52  74 S9        30.17F
WELLSVILLE     CLOUDY    59  49  69 S14G21    30.23F
ROCHESTER      PTCLDY    64  52  64 S10       30.15F
PENN YAN       CLOUDY    61  45  55 S9        30.20F
$$

             KEY
       WCI = WIND CHILL INDEX
       VSB = VISIBILITY
       HX  = HEAT INDEX
$$




USA.gov is the U.S. government's official web portal to all federal, state and local government web resources and services.